Tracking 30995 objects as of 7-Jul-2025
HD Live streaming from Space Station
objects crossing your sky now

ONEWEB-0511

Track ONEWEB-0511 now!
10-day predictions
ONEWEB-0511 is classified as:


NORAD ID: 54129
Int'l Code: 2022-138S
Perigee: 1,191.6 km
Apogee: 1,194.2 km
Inclination: 87.9 °
Period: 109.1 minutes
Semi major axis: 7563 km
RCS: Unknown
Launch date: October 22, 2022
Source: United Kingdom (UK)
Launch site: SRIHARIKOTA (SRI)
Your satellite tracking list
Your tracking list is empty




NASA's NSSDC Master Catalog

Two Line Element Set (TLE):
1 54129U 22138S   25187.59165033  .00000052  00000-0  97701-4 0  9997
2 54129  87.9208  13.6466 0001675  98.9388 261.1935 13.19726958131257
Source of the keplerian elements: AFSPC